Regional Weather Roundup
Issued by NWS

Home | Current Version | Previous Version | Graphics & Text | Print | Product List | Glossary On
Versions: 1 2 3 4 5 6 7 8 9 10 11 12 13 14 15 16 17 18 19 20 21 22 23 24 25 26 27 28 29 30 31 32 33 34 35 36 37 38 39 40 41 42 43 44 45 46 47 48 49 50
000
ASUS43 KTOP 020459
RWRKS

WEATHER ROUNDUP FOR KANSAS
NATIONAL WEATHER SERVICE GOODLAND KS
1200 AM CDT MON MAY 02 2016

NOTE:  "FAIR" INDICATES FEW OR NO CLOUDS BELOW 12,000 FEET WITH NO
SIGNIFICANT WEATHER AND/OR OBSTRUCTIONS TO VISIBILITY.

KSZ001>006-013>018-027>032-041>047-020600-
NORTHWEST KANSAS

CITY           SKY/WX    TMP DP  RH WIND       PRES   REMARKS
GOODLAND       CLEAR     33  30  88 NW9       30.25S
HAYS           CLOUDY    43  34  70 NW3       30.23S
HILL CITY      PTCLDY    37  36  96 W5        30.24S
RUSSELL        CLOUDY    45  42  89 NW3       30.21S
$$

KSZ061>065-074>080-084>089-020600-
SOUTHWEST KANSAS

CITY           SKY/WX    TMP DP  RH WIND       PRES   REMARKS
DODGE CITY     LGT RAIN  43  39  86 N5        30.24S
ELKHART          N/A     42  39  89 SW1         N/A
GARDEN CITY    CLOUDY    43  40  89 NW5       30.25R
GREAT BEND     CLOUDY    45  37  76 N5        30.22F
LIBERAL        CLOUDY    45  37  76 W5        30.26S
$$

KSZ066>073-081>083-090>101-020600-
SOUTHEAST KANSAS

CITY           SKY/WX    TMP DP  RH WIND       PRES   REMARKS
CHANUTE        CLOUDY    52  44  74 N8        30.14S
COFFEYVILLE    CLOUDY    55  46  71 N13       30.14R
HUTCHINSON     CLOUDY    48  42  80 N7        30.20F
MEDICINE LODGE   N/A     47  43  86 N6        30.21S
NEWTON         CLOUDY    46  37  71 N10       30.20S
PARSONS        CLOUDY    54  47  77 N9        30.15R
WICHITA INTL   CLOUDY    49  42  77 N14       30.18F
WICHITA JABRA  CLOUDY    47  43  86 N13       30.19R
WINFIELD       CLOUDY    50  43  77 N10       30.19S
$$

KSZ007>012-019>026-033>040-048>060-102>105-020600-
NORTHEAST KANSAS

CITY           SKY/WX    TMP DP  RH WIND       PRES   REMARKS
CONCORDIA      CLOUDY    47  42  83 W6        30.20S
EMPORIA        CLOUDY    48  43  82 N8        30.17R
LAWRENCE       CLOUDY    49  43  80 NW9       30.16R
MANHATTAN      CLOUDY    49  42  77 CALM      30.19R
OLATHE IND     CLOUDY    49  44  83 NW8       30.15S
OLATHE EXE     CLOUDY    49  43  80 N10       30.14S
SALINA         CLOUDY    48  43  82 NW3       30.21F
TOPEKA BILLARD CLOUDY    49  43  80 NW6       30.17S
TOPEKA FORBES  CLOUDY    50  43  77 N6        30.17R
$$




USA.gov is the U.S. government's official web portal to all federal, state and local government web resources and services.